User: anonymous   Login
Location: Unspecified
(0.0000°N, 0.0000°E)
Time: 22:34:02
(UTC+00:00)
Language:

BEESAT 4 - Orbit

View from above orbital plane
View from above orbital plane
View from above satellite
View from above satellite

Ground track
Ground track

The orbit data is extracted from the following two-line orbital elements,

1 41619U 16040W   18344.15823580  .00001248  00000-0  56662-4 0  9998
2 41619  97.3945  44.7085 0010755 340.9489  19.1344 15.22606496124867
Epoch (UTC): 10 December 2018 03:47:51
Eccentricity: 0.0010755
inclination: 97.3945°
perigee height: 490 km
apogee height: 505 km
right ascension of ascending node: 44.7085°
argument of perigee: 340.9489°
revolutions per day: 15.22606496
mean anomaly at epoch: 19.1344°
orbit number at epoch: 12486

The dashed part of the orbit path shows where the satellite is in the earth's shadow,  

DLR